#timestamp,LO_Frequency,Hit,StdDev 
1532307615.1,286047000.2,N
1532307635.9,286047002.8,N
1532307655.7,286047002.3,N
1532307675.5,286047002.8,N
1532307695.4,286047000.2,N
1532307715.2,286047001.9,N
1532307735.0,286047002.0,N
1532307735.9,286047002.0,N
1532307755.8,286047001.7,N
1532307775.6,286047003.8,N
1532307795.5,286047004.1,N
1532307815.3,286047001.3,N
1532307835.1,286047004.1,N
1532307855.9,286047004.2,N
1532307875.7,286047004.0,N
1532307895.5,286047002.0,N
1532307915.4,286047002.4,N
1532307935.2,286047002.3,N
1532307955.1,286047000.3,N
1532307956.0,286047000.3,N
1532307975.8,286047002.6,N
1532307995.6,286047000.5,N
1532308015.5,286046999.7,N
1532308035.3,286047002.7,N
1532308055.2,286047000.4,N
1532308075.9,286047002.6,N
1532308095.7,286047002.2,N
1532308115.6,286047002.5,N
1532308135.4,286047000.1,N
1532308155.2,286047002.4,N
1532308175.1,286047001.5,N
1532308176.0,286047001.5,N
1532308195.8,286047001.6,N
1532308215.7,286047001.5,N
1532308235.5,286047001.5,N
1532308255.3,286047002.2,N
1532308275.2,286047002.1,N
1532308295.0,286047001.3,N
1532308295.9,286047001.3,N
1532308315.7,286047004.2,Y
1532308335.6,286047000.1,P
1532308355.4,286047000.0,N
1532308375.3,286046999.7,N
1532308395.1,286047002.4,N
1532308396.0,286047002.4,N
1532308415.8,286047000.7,N
1532308435.7,286046998.6,N
1532308455.5,286046999.2,N
1532308475.3,286046998.8,N
1532308495.2,286046998.4,N
1532308515.0,286046998.1,N
1532308515.9,286046998.1,N
1532308535.8,286046997.0,N
1532308555.6,286046998.6,N
1532308575.4,286046999.5,N
1532308595.3,286046997.4,N
1532308615.1,286046999.2,N
1532308635.9,286046999.0,N
1532308655.7,286046998.8,N
1532308675.5,286046999.6,N
1532308695.4,286046999.2,N
1532308715.2,286046998.8,N
1532308735.0,286046998.9,N
1532308735.9,286046998.9,N
1532308755.8,286046998.7,N
1532308775.6,286046998.3,N
1532308795.5,286047000.1,N
1532308815.3,286047000.7,N
1532308835.1,286046999.7,N
1532308855.9,286047000.7,N
1532308875.7,286047001.1,N
1532308895.5,286047000.1,N
1532308915.4,286047000.6,N
1532308935.2,286047002.3,N
1532308955.1,286047000.2,N
1532308956.0,286047000.2,N
1532308975.8,286047002.8,N
1532308995.6,286047001.1,N
1532309015.5,286047001.0,N
1532309035.3,286047000.6,N
1532309055.1,286047000.6,N
1532309075.9,286047002.6,N
1532309095.7,286047002.7,N
1532309115.6,286047002.7,N
1532309135.4,286047000.9,N
1532309155.2,286046998.8,N
1532309175.1,286046998.7,N
1532309176.0,286046998.7,N
1532309195.8,286046998.8,N
1532309215.7,286047000.8,N
1532309235.5,286047000.5,N
1532309255.3,286047000.2,N
1532309275.2,286047002.0,N
1532309295.9,286046999.7,N
1532309315.7,286047002.7,N
1532309335.6,286046999.9,N
1532309355.4,286047000.2,N
1532309375.3,286046998.5,N
1532309395.1,286046998.2,N
1532309396.0,286046998.2,N
1532309415.8,286046998.5,N
1532309435.7,286046998.2,N
1532309455.5,286047000.1,N
1532309475.3,286047000.0,N
1532309495.2,286047000.4,N
1532309515.0,286047000.4,N
1532309515.9,286047000.4,N
1532309535.8,286047000.4,N
1532309555.6,286046998.2,N
1532309575.4,286046998.3,N
1532309595.3,286047001.2,N
1532309615.1,286047001.1,N
1532309635.9,286047000.8,N
1532309655.7,286047001.1,N
1532309675.5,286046998.6,N
1532309695.4,286047000.7,N
1532309715.2,286046998.1,N
1532309735.0,286046998.5,N
1532309735.9,286046998.5,N
1532309755.8,286047000.8,N
1532309775.6,286046998.4,N
1532309795.5,286046998.4,N
1532309815.3,286047001.2,N
1532309835.1,286047000.4,N
1532309855.9,286046999.1,N
1532309875.7,286046996.8,N
1532309895.5,286046997.3,N
1532309915.4,286046999.1,N
1532309935.2,286046999.2,N
1532309955.1,286046999.6,N
1532309956.0,286046999.6,N
1532309975.8,286046997.8,N
1532309995.6,286046997.0,N
1532310015.5,286046998.3,N
1532310035.3,286046999.1,N
1532310055.1,286046998.3,N
1532310075.9,286046996.7,N
1532310095.7,286046996.5,N
1532310115.6,286046999.6,N
1532310135.4,286046999.5,N
1532310155.2,286046999.4,N
1532310175.1,286046999.1,N
1532310176.0,286046999.1,N
1532310195.8,286046998.9,N
1532310215.6,286046998.6,N
1532310235.5,286046998.9,N
1532310255.3,286046998.8,N
1532310275.2,286047001.1,N
1532310295.9,286047000.4,N
1532310315.7,286047000.5,N
1532310335.6,286047002.8,N
1532310355.4,286046998.6,N
1532310375.3,286046996.9,N
1532310395.1,286046996.8,N
1532310396.0,286046996.8,N
1532310415.8,286046997.4,N
1532310435.7,286046996.8,N
1532310455.5,286046999.1,N
1532310475.3,286046998.4,N
1532310495.2,286047000.8,N
1532310515.0,286046998.9,N
1532310515.9,286046998.9,N
1532310535.8,286046998.6,N
1532310555.6,286046998.4,N
1532310575.4,286046999.9,N
1532310595.3,286047000.6,N
1532310615.1,286047000.6,N
1532310635.8,286046999.7,N
1532310655.7,286047002.3,N
1532310675.5,286047001.8,N
1532310695.4,286047002.5,N
1532310715.2,286046999.7,N
1532310735.0,286046999.7,N
1532310735.9,286046999.7,N
1532310755.8,286047001.0,N
1532310775.6,286047001.0,N
1532310795.4,286046998.7,N
1532310815.3,286047000.6,N
1532310835.1,286046998.3,N
1532310855.9,286046998.1,N
1532310875.7,286047000.7,N
1532310895.5,286047000.2,N
1532310915.4,286047000.9,N
1532310935.2,286046998.2,N
1532310955.1,286047001.0,N
1532310956.0,286047001.0,N
1532310975.8,286046999.2,N
1532310995.6,286046998.3,N
1532311015.5,286046998.9,N
1532311035.3,286046998.4,N
1532311055.2,286046998.2,N
1532311075.9,286046998.4,N
1532311095.7,286046998.6,N
1532311115.6,286047000.8,N
1532311135.4,286046999.9,N
1532311155.2,286047002.6,N
1532311175.1,286047002.4,N
1532311176.0,286047002.4,N
1532311195.8,286047000.2,N
